Home   Weather   Idaho Falls   Past weeks

Flag for USA Past Weather in Idaho Falls, Idaho, USA — Yesterday and Last 2 Weeks

51 °F


Feels Like: 49 °F
Forecast: 48 / 53 °F
Wind: 7 mph from West

Location: Fanning Field

Current Time: Oct 28, 2016 at 2:22:46 AM

Latest Report: Oct 28, 2016 at 1:53 AM

Visibility: 10 mi

Pressure: 29.93 "Hg (25.19 "Hg at 1429m altitude)

Humidity: 71%

Dew Point: 42 °F

Location of Idaho FallsLocation

Past Weather in Idaho Falls — Graph


Idaho Falls Temperature Yesterday

Maximum temperature yesterday: 68 °F (at 12:53 PM)
Minimum temperature yesterday: 37 °F (at 5:53 AM)
Average temperature yesterday: 52 °F

High & Low Weather Summary for the Past Weeks

High68 °F (Oct 27, 12:53 PM)97% (Oct 25, 11:53 PM)30.55 "Hg (Oct 25, 11:53 PM)
Low25 °F (Oct 20, 4:53 AM)29% (Oct 21, 3:53 PM)29.57 "Hg (Oct 17, 2:53 AM)
Average46 °F71%30.05 "Hg
* Reported Oct 13 12:53 AM — Oct 28 12:53 AM, Idaho Falls, Weather by CustomWeather, © 2016

Note: Actual official high and low records may vary slightly from our data, if they occured in-between our weather recording intervals... More about our weather records


Idaho Falls Weather History for the Previous 24 Hours

Scroll right to see more
Time TempWeatherWind HumidityBarometerVisibility
12:53 AM
Fri, Oct 28
53 °FPassing clouds.10 mph69%29.89 "Hg10 mi
11:53 PM
Thu, Oct 27
55 °FOvercast.9 mph67%29.91 "Hg10 mi
10:53 PM52 °FClear.6 mph72%29.96 "Hg10 mi
9:53 PM54 °FOvercast.No wind69%29.96 "Hg10 mi
8:53 PM57 °FPassing clouds.6 mph60%29.96 "Hg10 mi
7:53 PM56 °FPassing clouds.7 mph62%29.96 "Hg10 mi
6:53 PM60 °FBroken clouds.7 mph56%29.95 "Hg10 mi
5:53 PM63 °FBroken clouds.7 mph54%29.94 "Hg10 mi
4:53 PM67 °FPartly sunny.14 mph44%29.93 "Hg10 mi
3:53 PM67 °FScattered clouds.20 mph44%29.93 "Hg10 mi
2:53 PM66 °FScattered clouds.12 mph50%29.95 "Hg10 mi
1:53 PM67 °FPartly sunny.16 mph47%29.96 "Hg10 mi
12:53 PM68 °FScattered clouds.13 mph45%29.98 "Hg10 mi
11:53 AM61 °FScattered clouds.6 mph54%30.02 "Hg10 mi
10:53 AM55 °FScattered clouds.No wind59%30.06 "Hg10 mi
9:53 AM46 °FSunny.No wind77%30.09 "Hg10 mi
8:53 AM39 °FPassing clouds.3 mph89%30.10 "Hg10 mi
7:53 AM37 °FClear.6 mph89%30.09 "Hg10 mi
6:53 AM38 °FClear.3 mph90%30.07 "Hg10 mi
5:53 AM37 °FClear.6 mph89%30.07 "Hg10 mi
4:53 AM38 °FClear.5 mph90%30.07 "Hg10 mi
3:53 AM39 °FClear.6 mph86%30.10 "Hg10 mi
2:53 AM39 °FClear.6 mph86%30.11 "Hg10 mi
Weather by CustomWeather, © 2016

See weather overviewHow to use our weather pages